DELTA 1 DEB, 10866

Orbit data source: Space-Track

DELTA 1 DEB, 10866 is space debris in SSO originally from a launch on Thu, 29 Jul 1976 UTC launched from the Air Force Western Test Range (AFWTR). Debris objects in space refer to the collection of defunct objects orbiting the Earth. Examples of debris include non-operational satellites, rocket bodies, and fragments generated from explosions, collisions, or faulty payload assembly.

Loading next visibility...
Identifier
10866, 1976-077CU
Orbit
SSO
Country
Flag of USUS
Related business
Manufacturer
Unknown
Mission
Spacecraft
Bus & Motor
Unknown
Mass
Unknown
Launch date (UTC)
1976-07-29 (50 years ago)
Launch vehicle
Unknown
Launch site
Air Force Western Test Range (AFWTR)
Object type
Payload
Rocket body
Debris
Shape & HBR
Unknown shape, 0.1 m
Radar Cross Section
Medium (>0.1 m² and <1 m²)

Expand to show TLE details & history
Last TLE update: 17 hours ago

TLE from 17 hours ago
0 DELTA 1 DEB
1 10866U 76077CU  26104.44057726 -.00000002  00000-0  37135-3 0  9991
2 10866 102.7243  70.0197 0148565 174.2450 308.4900 12.30634869232113
Epoch: 2026-04-14T10:34Z
TLE epoch observation values (Epoch: 2026-04-14T10:34:25.875Z)
Latitude
56.47217°
Longitude
-91.38153°
Altitude
1,483.544 km
Speed
7.159 km/s
True Right ascension
17h 59m 22s
True Declination
56° 19' 42"
Sunlit
Object was in daylight at epoch
Visualization orbit readout
Latitude
Unknown
Longitude
Unknown
Altitude
Unknown
Speed
Unknown
Apparent Right ascension
Unknown
Apparent Declination
Unknown
Sunlit
N/A
Visualization observer readout
Local Sidereal Time
10:31:05
Azimuth
Unknown
Elevation
Unknown
Doppler factor
Unknown
Orbital elements
Apogee altitude
1,661.883 km
Perigee altitude
1,426.487 km
Semi-major axis
7,922.322 km
Eccentricity
0.01486
Inclination
102.7243°
RAAN
70.0197°
Arg. of periapsis
174.245°
True anomaly
307.14203°
Mean anomaly
308.49°
Eccentric anomaly
307.81757°
Mean motion
3.07797 °/min
Orbital period
116.96 mins
BSTAR
0.00037135
Loading maneuver chart data...
Computing Atmospheric mass density...
Loading historical data...
Loading historical data...
Loading historical data...
Loading historical data...
Loading historical data...
Loading historical data...
Loading historical data...

Documentation

Showing up to 5 results
|